Location: Chefe Valiua
(16.5342°S, 37.2214°E)
Time: 14:39:46
(UTC+00:00)

Envisat - Pass Details

Date: 19 June 2021
Orbit: 764 x 766 km, 98.1° (Epoch: 25 July)

Event Time Altitude Azimuth Distance (km) Brightness Sun altitude
Rises 01:40:00 0° 35° (NE) 3,213 6.9 -31.9°
Reaches altitude 10° 01:42:33 10° 46° (NE) 2,293 6.2 -31.3°
Maximum altitude 01:46:53 29° 105° (ESE) 1,371 4.7 -30.3°
Enters shadow 01:50:03 16° 156° (SSE) 1,927 5.1 -29.6°
